Location: Sydney
(46.1500°N, 60.1670°W)
Time: 16:43:55
(UTC-03:00)

Iridium 90 - Visible Passes

Search period start: 23 August 2017 00:00
Search period end: 02 September 2017 00:00
Orbit: 747 x 750 km, 86.4° (Epoch: 23 August)

Date Brightness Start Highest point End Pass type
(mag) Time Alt. Az. Time Alt. Az. Time Alt. Az.
23 Aug 7.1 01:33:08 26° NW 01:33:08 26° NW 01:36:15 10° NNW visible
23 Aug 7.5 23:11:22 15° ENE 23:11:22 15° ENE 23:13:11 10° NE visible
24 Aug 6.6 00:51:13 40° NNW 00:51:13 40° NNW 00:54:35 10° N visible
25 Aug 6.6 00:09:19 38° NNE 00:09:19 38° NNE 00:12:30 10° N visible
25 Aug 7.6 01:49:10 17° NW 01:49:10 17° NW 01:51:28 10° NNW visible
25 Aug 7.1 23:27:23 23° NE 23:27:23 23° NE 23:29:59 10° NNE visible
26 Aug 7.1 01:07:15 29° NW 01:07:15 29° NW 01:10:18 10° NNW visible
26 Aug 7.7 22:45:28 13° ENE 22:45:28 13° ENE 22:46:36 10° NE visible
27 Aug 6.7 00:25:19 39° N 00:25:19 39° N 00:28:31 10° N visible
27 Aug 6.8 23:43:24 32° NNE 23:43:24 32° NNE 23:46:20 10° NNE visible
28 Aug 7.6 01:23:15 19° NW 01:23:15 19° NW 01:25:41 10° NNW visible
28 Aug 7.3 23:01:28 20° NE 23:01:28 20° NE 23:03:40 10° NNE visible
29 Aug 7.0 00:41:19 31° NNW 00:41:19 31° NNW 00:44:19 10° N visible
29 Aug 7.8 22:19:31 10° ENE 22:19:31 10° ENE 22:19:41 10° NE visible
29 Aug 6.7 23:59:23 37° N 23:59:23 37° N 00:02:25 10° N visible
30 Aug 8.0 01:39:15 12° NW 01:39:15 12° NW 01:40:16 10° NW visible
30 Aug 6.9 23:17:26 28° NE 23:17:26 28° NE 23:20:08 10° NNE visible
31 Aug 7.5 00:57:18 21° NW 00:57:18 21° NW 00:59:50 10° NNW visible
31 Aug 7.4 22:35:29 17° NE 22:35:29 17° NE 22:37:17 10° NNE visible
01 Sep 7.0 00:15:21 32° NNW 00:15:21 32° NNW 00:18:18 10° N visible
01 Sep 6.8 23:33:24 35° NNE 23:33:24 35° NNE 23:36:18 10° N visible
